Hourly Data Report for November 19, 2006

TORONTO CITY
ONTARIO

43°40'00.000" N
79°24'00.000" W
112.50 m
6158355
71508
XTO

Download Data

Hourly Data (November 2006)
Hourly Data Report for November 19, 2006
TIME
LST
Temp Definition
°C
Dew Point Definition
°C
Rel Hum Definition
%
Precip. Amount Definition
mm

Wind Dir Definition
10's deg

Wind Spd Definition
km/h
Visibility Definition
km
Stn Press Definition
kPa
Hmdx Definition


Wind Chill Definition


Weather Definition


00:00 3.2 0.0 79   LegendMM LegendMM   100.42     LegendNANA
01:00 2.8 -0.4 79   LegendMM LegendMM   100.40     LegendNANA
02:00 2.2 -1.1 79   LegendMM LegendMM   100.40     LegendNANA
03:00 2.2 -1.0 79   LegendMM LegendMM   100.40     LegendNANA
04:00 2.0 -1.6 77   LegendMM LegendMM   100.39     LegendNANA
05:00 1.6 -2.2 76   LegendMM LegendMM   100.40     LegendNANA
06:00 1.8 -2.0 76   LegendMM LegendMM   100.40     LegendNANA
07:00 1.5 -2.3 76   LegendMM LegendMM   100.42     LegendNANA
08:00 1.6 -2.2 76   LegendMM LegendMM   100.45     LegendNANA
09:00 1.6 -2.0 77   LegendMM LegendMM   100.46     LegendNANA
10:00 1.6 -2.4 75   LegendMM LegendMM   100.49     LegendNANA
11:00 1.8 -2.4 74   LegendMM LegendMM   100.50     LegendNANA
12:00 2.2 -1.6 76   LegendMM LegendMM   100.45     LegendNANA
13:00 1.9 -2.4 73   LegendMM LegendMM   100.46     LegendNANA
14:00 2.0 -2.2 74   LegendMM LegendMM   100.42     LegendNANA
15:00 1.9 -2.4 73   LegendMM LegendMM   100.43     LegendNANA
16:00 1.9 -2.5 73   LegendMM LegendMM   100.44     LegendNANA
17:00 2.0 -2.4 73   LegendMM LegendMM   100.44     LegendNANA
18:00 1.8 -2.5 73   LegendMM LegendMM   100.49     LegendNANA
19:00 1.6 -2.5 74   LegendMM LegendMM   100.51     LegendNANA
20:00 1.4 -2.8 74   LegendMM LegendMM   100.52     LegendNANA
21:00 1.3 -2.5 76   LegendMM LegendMM   100.54     LegendNANA
22:00 0.9 -2.1 80   LegendMM LegendMM   100.57     LegendNANA
23:00 0.7 -1.9 83   LegendMM LegendMM   100.58     LegendNANA

Notes on Data Quality.

Legend

  • E = Estimated
  • M = Missing
  • NA = Not Available*
  • [empty] = Indicates an unobserved value
Date modified: